Flag for Germany Weather past 2 weeks in Paderborn, North Rhine-Westphalia, Germany

Now
63 °F

Clear.


Feels Like: 63 °F
Forecast: 59 / 72 °F
Wind: 6 mph from Southwest

Location: Paderborn / Lippstadt

Current Time: Aug 29, 2014 at 1:26:17 AM

Latest Report: Aug 28, 2014 at 11:50 PM


Visibility: 10 mi

Pressure: 29.98 "Hg

Humidity: 77%

Dew point: 55 °F

Location of PaderbornLocation

Historic Weather in Paderborn — Graph

°F

Paderborn temperature yesterday

Maximum temperature yesterday: 72 °F (at 2:50 PM)
Minimum temperature yesterday: 50 °F (at 4:20 AM)
Average temperature yesterday: 63 °F

Past Weeks' High & Low Weather Summary

 TemperatureHumidityPressure
High72 °F (Aug 28, 2:50 PM)100% (Aug 15, 9:50 PM)30.09 "Hg (Aug 15, 9:50 PM)
Low45 °F (Aug 24, 4:20 AM)43% (Aug 27, 4:20 PM)29.68 "Hg (Aug 18, 4:20 AM)
Average56 °F74%29.92 "Hg
* Reported Aug 13 11:20 PM — Aug 28 11:50 PM, Paderborn, Weather by CustomWeather, © 2014

Note: Actual official high and low records may vary slightly from our data, if they occured in-between our weather recording intervals... More about our weather records

Advertising

Paderborn weather history for previous 24 hours

 ConditionsComfort  
Time TempWeatherWind HumidityBarometerVisibility
11:50 PM
Aug 28
63 °FClear.6 mph77%29.98 "Hg10 mi
11:20 PM64 °FClear.10 mph73%29.98 "Hg10 mi
10:50 PM64 °FClear.9 mph73%29.98 "Hg10 mi
10:20 PM64 °FClear.6 mph73%29.98 "Hg10 mi
9:50 PM64 °FClear.5 mph73%29.98 "Hg10 mi
9:20 PM64 °FSunny.6 mph73%29.98 "Hg10 mi
8:50 PM64 °FScattered clouds.14 mph73%29.98 "HgN/A
8:20 PM66 °FPartly sunny.5 mph68%29.98 "HgN/A
7:50 PM66 °FPartly sunny.5 mph68%29.98 "HgN/A
7:20 PM68 °FSunny.6 mph60%29.98 "Hg10 mi
6:50 PM68 °FSunny.7 mph60%29.98 "Hg10 mi
6:20 PM70 °FSunny.8 mph57%29.98 "Hg10 mi
5:20 PM70 °FSunny.9 mph53%29.98 "Hg10 mi
4:50 PM70 °FSunny.9 mph53%29.98 "Hg10 mi
4:20 PM72 °FScattered clouds.10 mph50%29.98 "HgN/A
3:50 PM72 °FScattered clouds.12 mph50%30.01 "HgN/A
3:20 PM72 °FScattered clouds.7 mph53%30.01 "HgN/A
2:50 PM72 °FScattered clouds.6 mph47%30.01 "HgN/A
2:20 PM70 °FScattered clouds.7 mph57%30.01 "HgN/A
1:50 PM70 °FScattered clouds.8 mph57%30.01 "HgN/A
1:20 PM70 °FScattered clouds.8 mph53%30.01 "HgN/A
12:50 PM68 °FScattered clouds.3 mph56%30.01 "HgN/A
12:20 PM68 °FSunny.3 mph56%30.04 "Hg10 mi
11:50 AM66 °FScattered clouds.7 mph60%30.04 "HgN/A
11:20 AM64 °FScattered clouds.7 mph64%30.04 "HgN/A
10:50 AM63 °FScattered clouds.8 mph64%30.04 "HgN/A
10:20 AM63 °FScattered clouds.6 mph64%30.04 "HgN/A
9:50 AM61 °FScattered clouds.5 mph68%30.04 "HgN/A
9:20 AM61 °FScattered clouds.6 mph63%30.04 "HgN/A
8:50 AM59 °FScattered clouds.6 mph68%30.04 "HgN/A
8:20 AM59 °FPassing clouds.7 mph63%30.04 "HgN/A
7:50 AM55 °FPassing clouds.9 mph72%30.04 "HgN/A
7:20 AM54 °FPassing clouds.9 mph72%30.04 "HgN/A
6:50 AM54 °FClear.9 mph67%30.04 "Hg10 mi
6:20 AM52 °FClear.9 mph72%30.04 "Hg10 mi
5:50 AM52 °FClear.9 mph72%30.04 "Hg10 mi
5:20 AM50 °FClear.9 mph76%30.04 "Hg10 mi
4:50 AM52 °FClear.9 mph72%30.04 "Hg10 mi
4:20 AM50 °FClear.9 mph82%30.04 "Hg10 mi
3:50 AM52 °FClear.9 mph72%30.04 "Hg10 mi
3:20 AM54 °FClear.12 mph67%30.04 "Hg10 mi
Weather by CustomWeather, © 2014

See weather overviewHow to use our weather pages